WY1U-1 Weather Reports


time (UTC)temp
F
wind
direction
speed
knots
gust
knots
rain 1hr
in
rain 24hr
in
rain mn
in
humidity
%
barometer
mb
20260903210151 82 256 0.9 2.6 0.00 0.32 0.32 69 1012.0
20260903190151 82 200 1.7 3.5 0.00 0.32 0.32 68 1012.9
20260903170151 78 231 0.9 4.3 0.00 0.32 0.32 75 1013.3
20260903160151 77 276 1.7 4.3 0.00 0.32 0.32 80 1013.9
20260903150151 75 272 1.7 4.3 0.00 0.32 0.32 86 1014.2
20260903140151 71 201 0.9 3.5 0.00 0.32 0.32 95 1014.4
20260903120153 68 0 0.0 0.0 0.00 0.32 0.32 95 1015.7
20260903110151 68 71 0.0 0.0 0.00 0.31 0.31 95 1015.7
20260903100151 67 0 0.0 0.0 0.00 0.31 0.31 95 1014.8
20260903090153 67 0 0.0 0.0 0.00 0.31 0.31 95 1015.2
20260903080151 66 0 0.0 0.0 0.00 0.31 0.31 95 1015.7
20260903070151 66 299 0.9 2.6 0.18 0.31 0.31 95 1016.5
20260903060151 66 302 2.6 6.1 0.00 0.00 0.00 91 1017.9
20260903050151 68 157 0.0 2.6 0.00 0.00 0.00 84 1018.1
20260903040152 67 169 0.0 0.0 0.00 0.00 0.00 82 1018.4
20260903030151 67 0 0.0 0.0 0.00 0.00 0.00 79 1018.7
20260903020151 68 223 0.0 2.6 0.00 0.00 0.00 76 1019.7
20260903010151 68 167 0.9 2.6 0.00 0.01 0.00 74 1019.6
20260903000152 68 112 0.9 2.6 0.00 0.01 0.00 73 1019.2
20260902230151 70 174 0.0 2.6 0.00 0.01 0.00 71 1020.2